• In Hungary
  • List of Countries
  • For 7 days
  • Water Temperature
  • Satellite Maps
  • Weather Map
  • News
  • Weather Widgets
  • user-avatar
    Login

    Hourly Weather Nouakchott

    Today, 13 November, Tuesday

    Time Temperature Precipitation Wind Pressure Humidity
    00:00 +26°C° 0 mm 6 mps 759 mmHg 41%
    01:00 +26°C° 0 mm 5 mps 758 mmHg 42%
    02:00 +26°C° 0 mm 5 mps 758 mmHg 42%
    03:00 +25°C° 0 mm 5 mps 758 mmHg 40%
    04:00 +24°C° 0 mm 6 mps 758 mmHg 38%
    05:00 +24°C° 0 mm 6 mps 758 mmHg 36%
    06:00 +24°C° 0 mm 6 mps 758 mmHg 34%
    07:00 +26°C° 0 mm 7 mps 759 mmHg 31%
    08:00 +26°C° 0 mm 7 mps 759 mmHg 29%
    09:00 +28°C° 0 mm 7 mps 759 mmHg 26%
    10:00 +30°C° 0 mm 6 mps 759 mmHg 22%
    11:00 +33°C° 0 mm 6 mps 759 mmHg 18%
    12:00 +34°C° 0 mm 5 mps 759 mmHg 17%
    13:00 +35°C° 0 mm 5 mps 758 mmHg 16%
    14:00 +36°C° 0 mm 5 mps 758 mmHg 14%
    15:00 +35°C° 0 mm 5 mps 757 mmHg 16%
    16:00 +34°C° 0 mm 6 mps 757 mmHg 19%
    17:00 +33°C° 0 mm 6 mps 757 mmHg 21%
    18:00 +32°C° 0 mm 6 mps 758 mmHg 24%
    19:00 +30°C° 0 mm 6 mps 758 mmHg 28%
    20:00 +29°C° 0 mm 6 mps 758 mmHg 32%
    21:00 +28°C° 0 mm 6 mps 758 mmHg 34%
    22:00 +27°C° 0 mm 6 mps 758 mmHg 36%
    23:00 +27°C° 0 mm 5 mps 758 mmHg 38%

    Tomorrow, 14 November, Wednesday

    Time Temperature Precipitation Wind Pressure Humidity
    00:00 +26°C° 0 mm 5 mps 758 mmHg 39%
    01:00 +26°C° 0 mm 5 mps 758 mmHg 40%
    02:00 +26°C° 0 mm 4 mps 758 mmHg 41%
    03:00 +25°C° 0 mm 5 mps 758 mmHg 40%
    04:00 +25°C° 0 mm 5 mps 758 mmHg 39%
    05:00 +25°C° 0 mm 5 mps 758 mmHg 39%
    06:00 +25°C° 0 mm 5 mps 758 mmHg 36%
    07:00 +25°C° 0 mm 5 mps 758 mmHg 33%
    08:00 +26°C° 0 mm 6 mps 759 mmHg 31%
    09:00 +28°C° 0 mm 5 mps 759 mmHg 27%
    10:00 +30°C° 0 mm 5 mps 759 mmHg 24%
    11:00 +33°C° 0 mm 5 mps 759 mmHg 21%
    12:00 +33°C° 0 mm 5 mps 758 mmHg 19%
    13:00 +34°C° 0 mm 5 mps 758 mmHg 18%
    14:00 +35°C° 0 mm 5 mps 757 mmHg 16%
    15:00 +34°C° 0 mm 6 mps 757 mmHg 18%
    16:00 +33°C° 0 mm 6 mps 757 mmHg 20%
    17:00 +32°C° 0 mm 7 mps 757 mmHg 22%
    18:00 +30°C° 0 mm 7 mps 758 mmHg 27%
    19:00 +28°C° 0 mm 7 mps 758 mmHg 32%
    20:00 +27°C° 0 mm 7 mps 759 mmHg 37%
    21:00 +26°C° 0 mm 7 mps 759 mmHg 40%
    22:00 +26°C° 0 mm 6 mps 759 mmHg 44%
    23:00 +24°C° 0 mm 6 mps 759 mmHg 47%

    Day after tomorrow, 15 November, Thursday

    Time Temperature Precipitation Wind Pressure Humidity
    00:00 +24°C° 0 mm 6 mps 759 mmHg 49%
    01:00 +23°C° 0 mm 6 mps 759 mmHg 51%
    02:00 +23°C° 0 mm 6 mps 759 mmHg 53%
    03:00 +23°C° 0 mm 5 mps 758 mmHg 52%
    04:00 +23°C° 0 mm 5 mps 758 mmHg 50%
    05:00 +23°C° 0 mm 4 mps 758 mmHg 49%
    06:00 +25°C° 0 mm 5 mps 759 mmHg 44%
    07:00 +25°C° 0 mm 5 mps 759 mmHg 39%
    08:00 +26°C° 0 mm 5 mps 760 mmHg 35%
    09:00 +27°C° 0 mm 5 mps 760 mmHg 30%
    10:00 +29°C° 0 mm 4 mps 760 mmHg 26%
    11:00 +30°C° 0 mm 4 mps 760 mmHg 22%
    12:00 +32°C° 0 mm 4 mps 759 mmHg 20%
    13:00 +33°C° 0 mm 4 mps 759 mmHg 18%
    14:00 +34°C° 0 mm 5 mps 758 mmHg 17%
    15:00 +33°C° 0 mm 5 mps 759 mmHg 19%
    16:00 +32°C° 0 mm 5 mps 759 mmHg 22%
    17:00 +30°C° 0 mm 5 mps 759 mmHg 25%
    18:00 +29°C° 0 mm 5 mps 759 mmHg 29%
    19:00 +28°C° 0 mm 5 mps 760 mmHg 33%
    20:00 +27°C° 0 mm 5 mps 760 mmHg 37%
    21:00 +26°C° 0 mm 5 mps 760 mmHg 42%
    22:00 +26°C° 0 mm 5 mps 760 mmHg 46%
    23:00 +25°C° 0 mm 5 mps 760 mmHg 51%

    16 November, Friday

    Time Temperature Precipitation Wind Pressure Humidity
    00:00 +25°C° 0 mm 5 mps 760 mmHg 53%
    01:00 +23°C° 0 mm 5 mps 760 mmHg 56%
    02:00 +23°C° 0 mm 5 mps 759 mmHg 58%
    03:00 +23°C° 0 mm 5 mps 759 mmHg 58%
    04:00 +22°C° 0 mm 5 mps 759 mmHg 57%
    05:00 +22°C° 0 mm 4 mps 759 mmHg 57%
    06:00 +23°C° 0 mm 4 mps 760 mmHg 51%
    07:00 +25°C° 0 mm 3 mps 760 mmHg 46%
    08:00 +25°C° 0 mm 3 mps 761 mmHg 40%
    09:00 +27°C° 0 mm 3 mps 761 mmHg 34%
    10:00 +29°C° 0 mm 3 mps 761 mmHg 28%
    11:00 +30°C° 0 mm 3 mps 761 mmHg 22%
    12:00 +31°C° 0 mm 3 mps 760 mmHg 21%
    13:00 +33°C° 0 mm 3 mps 759 mmHg 19%
    14:00 +34°C° 0 mm 3 mps 759 mmHg 17%
    15:00 +33°C° 0 mm 4 mps 759 mmHg 18%
    16:00 +32°C° 0 mm 4 mps 759 mmHg 20%
    17:00 +32°C° 0 mm 5 mps 759 mmHg 21%
    18:00 +30°C° 0 mm 5 mps 759 mmHg 25%
    19:00 +29°C° 0 mm 5 mps 760 mmHg 28%
    20:00 +28°C° 0 mm 5 mps 760 mmHg 32%
    21:00 +27°C° 0 mm 5 mps 760 mmHg 34%
    22:00 +27°C° 0 mm 5 mps 760 mmHg 37%
    23:00 +26°C° 0 mm 5 mps 760 mmHg 39%

    17 November, Saturday

    Time Temperature Precipitation Wind Pressure Humidity
    00:00 +25°C° 0 mm 5 mps 760 mmHg 43%
    01:00 +25°C° 0 mm 5 mps 760 mmHg 46%
    02:00 +23°C° 0 mm 5 mps 759 mmHg 50%
    03:00 +23°C° 0 mm 5 mps 759 mmHg 53%
    04:00 +22°C° 0 mm 5 mps 759 mmHg 56%
    05:00 +22°C° 0 mm 5 mps 759 mmHg 59%
    06:00 +23°C° 0 mm 4 mps 759 mmHg 54%
    07:00 +23°C° 0 mm 4 mps 760 mmHg 49%
    08:00 +25°C° 0 mm 3 mps 760 mmHg 44%
    09:00 +27°C° 0 mm 4 mps 760 mmHg 37%
    10:00 +29°C° 0 mm 5 mps 760 mmHg 30%
    11:00 +32°C° 0 mm 5 mps 760 mmHg 23%
    12:00 +33°C° 0 mm 4 mps 760 mmHg 21%
    13:00 +33°C° 0 mm 4 mps 759 mmHg 19%
    14:00 +34°C° 0 mm 3 mps 758 mmHg 18%
    15:00 +33°C° 0 mm 4 mps 758 mmHg 19%
    16:00 +32°C° 0 mm 5 mps 758 mmHg 20%
    17:00 +32°C° 0 mm 6 mps 758 mmHg 22%
    18:00 +29°C° 0 mm 6 mps 759 mmHg 30%
    19:00 +28°C° 0 mm 6 mps 759 mmHg 38%
    20:00 +26°C° 0 mm 6 mps 760 mmHg 46%
    21:00 +24°C° 0 mm 6 mps 760 mmHg 49%
    22:00 +24°C° 0 mm 6 mps 760 mmHg 52%
    23:00 +23°C° 0 mm 7 mps 760 mmHg 55%

    18 November, Sunday

    Time Temperature Precipitation Wind Pressure Humidity
    00:00 +23°C° 0 mm 6 mps 759 mmHg 58%
    01:00 +22°C° 0 mm 6 mps 759 mmHg 61%
    02:00 +22°C° 0 mm 6 mps 759 mmHg 64%
    03:00 +21°C° 0 mm 5 mps 759 mmHg 65%
    04:00 +21°C° 0 mm 5 mps 759 mmHg 66%
    05:00 +21°C° 0 mm 5 mps 759 mmHg 66%
    06:00 +21°C° 0 mm 5 mps 759 mmHg 62%
    07:00 +22°C° 0 mm 5 mps 760 mmHg 58%
    08:00 +22°C° 0 mm 5 mps 760 mmHg 54%
    09:00 +25°C° 0 mm 5 mps 760 mmHg 47%
    10:00 +27°C° 0 mm 5 mps 760 mmHg 40%
    11:00 +28°C° 0 mm 4 mps 760 mmHg 32%
    12:00 +29°C° 0 mm 5 mps 759 mmHg 30%
    13:00 +30°C° 0 mm 5 mps 758 mmHg 27%
    14:00 +32°C° 0 mm 5 mps 758 mmHg 25%
    15:00 +30°C° 0 mm 5 mps 758 mmHg 28%
    16:00 +29°C° 0 mm 6 mps 758 mmHg 32%
    17:00 +28°C° 0 mm 6 mps 758 mmHg 35%
    18:00 +27°C° 0 mm 6 mps 759 mmHg 43%
    19:00 +25°C° 0 mm 5 mps 759 mmHg 51%
    20:00 +23°C° 0 mm 5 mps 759 mmHg 58%
    21:00 +23°C° 0 mm 5 mps 759 mmHg 64%
    22:00 +22°C° 0 mm 5 mps 759 mmHg 70%
    23:00 +22°C° 0 mm 6 mps 759 mmHg 76%
    Show more